Stations météo

réclame
Mon MeteoGroup
Soderstjerna, Suède (2667): Température de l'air & dewpoint: 15.01.2019 17:00:00 - 21.01.2019 17:00:00 (CET)Soderstjerna, Suède (2667): Vitesse du vent & gusts: 15.01.2019 17:00:00 - 21.01.2019 17:00:00 (CET)Soderstjerna, Suède (2667): Direction du vent: 15.01.2019 17:00:00 - 21.01.2019 17:00:00 (CET)Soderstjerna, Suède (2667): reduced air pressure: 15.01.2019 17:00:00 - 21.01.2019 17:00:00 (CET)Soderstjerna, Suède (2667): visibility: 15.01.2019 17:00:00 - 21.01.2019 17:00:00 (CET)Soderstjerna, Suède (2667): Quantités de précipitations: 15.01.2019 17:00:00 - 21.01.2019 17:00:00 (CET)
Date & Time tt [°C] td [°C] ff [km/h] ff [knt] fx [km/h] fx [knt] dd ppp [hPa] vv [km] rr [mm]
21.01.2019 17:00:00 - - - - - - - - - -
21.01.2019 16:00:00 1,1 -0,1 25 14 32 18 SSW 1014,4 7 0,0
21.01.2019 15:00:00 1,2 -0,6 25 14 32 18 SW 1014,9 16 0,0
21.01.2019 14:00:00 1,5 -0,7 25 14 32 18 SW 1015,3 12 0,0
21.01.2019 13:00:00 1,9 -0,8 25 14 40 21 WSW 1015,7 22 0,0
21.01.2019 12:00:00 2,1 -0,7 29 16 40 21 WSW 1016,1 24 0,0
21.01.2019 11:00:00 1,9 0,1 18 10 25 14 WSW 1016,7 13 0,0
21.01.2019 10:00:00 1,8 0,0 18 10 29 16 WSW 1016,9 11 0,0
21.01.2019 09:00:00 1,7 0,3 22 12 29 16 WSW 1017,2 10 0,0
21.01.2019 08:00:00 1,2 0,6 14 8 18 10 W 1017,1 5 0,0
21.01.2019 07:00:00 -0,2 -0,6 0 0 0 0 N 1017,4 4,6 0,0
21.01.2019 06:00:00 -1,0 -1,6 0 0 7 4 N 1017,7 5 0,2
21.01.2019 05:00:00 -1,2 -1,8 4 2 7 4 ENE 1018,2 1,4 0,1
21.01.2019 04:00:00 -1,1 -1,7 0 0 14 8 N 1018,5 3,5 0,0
21.01.2019 03:00:00 -1,0 -1,7 7 4 14 8 NW 1019,1 2,3 0,0
21.01.2019 02:00:00 -1,3 -2,7 4 2 11 6 N 1019,0 9 0,0
21.01.2019 01:00:00 -2,2 -4,4 4 2 11 6 WNW 1019,4 45 0,0
21.01.2019 00:00:00 -2,2 -3,8 0 0 4 2 N 1019,7 45 0,0
20.01.2019 23:00:00 -2,7 -4,0 0 0 4 2 N 1019,6 45 0,0
20.01.2019 22:00:00 -2,8 -4,2 0 0 7 4 N 1019,5 50 0,0
20.01.2019 21:00:00 -2,8 -4,1 0 0 7 4 N 1019,4 45 0,0
20.01.2019 20:00:00 -1,9 -3,8 0 0 7 4 N 1019,2 50 0,0
20.01.2019 19:00:00 -1,4 -2,8 7 4 7 4 WNW 1019,0 50 0,0
20.01.2019 18:00:00 -1,1 -3,3 4 2 7 4 W 1018,8 50 0,0
20.01.2019 17:00:00 -0,3 -3,0 4 2 11 6 N 1018,6 50 0,0
20.01.2019 16:00:00 0,3 -2,2 7 4 14 8 WNW 1018,3 45 0,0
20.01.2019 15:00:00 0,4 -2,6 7 4 11 6 WNW 1017,9 45 0,0
20.01.2019 14:00:00 0,4 -3,2 4 2 7 4 WNW 1017,9 50 0,0
20.01.2019 13:00:00 0,3 -3,3 4 2 7 4 NNW 1018,0 40 0,0
20.01.2019 12:00:00 0,4 -3,3 0 0 4 2 N 1017,6 45 0,0
20.01.2019 11:00:00 0,1 -3,1 0 0 18 10 N 1017,7 50 0,0
20.01.2019 10:00:00 -0,3 -2,7 11 6 18 10 NE 1017,2 20 0,0
20.01.2019 09:00:00 -0,1 -1,7 7 4 29 16 NNE 1016,7 11 0,1
20.01.2019 08:00:00 0,2 -1,4 22 12 32 18 W 1015,8 11 0,0
20.01.2019 07:00:00 0,2 -2,0 22 12 32 18 W 1015,6 14 0,0
20.01.2019 06:00:00 0,3 -1,9 25 14 32 18 W 1015,5 15 0,0
20.01.2019 05:00:00 0,6 -2,0 25 14 36 19 W 1015,4 20 0,0
20.01.2019 04:00:00 0,8 -1,6 25 14 36 19 W 1015,8 18 0,0
20.01.2019 03:00:00 1,4 -1,0 29 16 43 23 W 1015,7 23 0,0
20.01.2019 02:00:00 1,7 -0,4 36 19 43 23 W 1015,6 22 0,0
20.01.2019 01:00:00 1,6 0,1 25 14 36 19 W 1015,7 15 0,0
20.01.2019 00:00:00 1,8 0,3 25 14 40 21 W 1015,9 15 0,0
19.01.2019 23:00:00 1,8 0,5 29 16 40 21 W 1016,0 15 0,0
19.01.2019 22:00:00 1,7 0,2 32 18 40 21 W 1015,9 20 0,0
19.01.2019 21:00:00 1,6 0,1 32 18 40 21 WSW 1015,7 19 0,0
19.01.2019 20:00:00 1,8 0,3 32 18 40 21 W 1015,9 22 0,0
19.01.2019 19:00:00 1,6 0,4 29 16 36 19 W 1015,7 16 0,0
19.01.2019 18:00:00 1,8 0,3 25 14 29 16 W 1015,8 30 0,0
19.01.2019 17:00:00 1,7 0,5 25 14 32 18 W 1015,8 30 0,0
19.01.2019 16:00:00 1,8 0,5 22 12 29 16 W 1016,0 30 0,0
19.01.2019 15:00:00 1,5 0,2 18 10 25 14 W 1016,0 21 0,0
19.01.2019 14:00:00 1,5 0,2 18 10 25 14 W 1016,3 18 0,0
19.01.2019 13:00:00 1,7 0,1 18 10 32 18 W 1016,4 22 0,0
19.01.2019 12:00:00 0,4 -0,7 11 6 18 10 WNW 1016,5 17 0,0
19.01.2019 11:00:00 -0,5 -1,6 11 6 14 8 W 1016,7 22 0,0
19.01.2019 10:00:00 -2,0 -3,4 11 6 14 8 W 1016,7 27 0,0
19.01.2019 09:00:00 -1,9 -3,2 7 4 14 8 W 1016,5 35 0,0
19.01.2019 08:00:00 -2,4 -3,5 7 4 14 8 WNW 1016,1 35 0,0
19.01.2019 07:00:00 -2,9 -3,9 7 4 14 8 WNW 1015,7 30 0,0
19.01.2019 06:00:00 -2,9 -3,9 11 6 14 8 WNW 1015,7 35 0,0
19.01.2019 05:00:00 -2,5 -3,3 11 6 14 8 WNW 1015,6 27 0,0
19.01.2019 04:00:00 -2,7 -3,7 7 4 14 8 WNW 1015,4 26 0,0
19.01.2019 03:00:00 -2,1 -3,2 11 6 14 8 WNW 1015,4 27 0,0
19.01.2019 02:00:00 -1,3 -2,6 11 6 18 10 WNW 1015,2 30 0,0
19.01.2019 01:00:00 -1,2 -2,5 11 6 18 10 WNW 1014,8 40 0,0
19.01.2019 00:00:00 -0,8 -2,5 14 8 22 12 WNW 1014,6 45 0,0
18.01.2019 23:00:00 -0,5 -2,5 14 8 25 14 WNW 1014,2 45 0,0
18.01.2019 22:00:00 -0,1 -2,6 14 8 29 16 WNW 1013,7 45 0,0
18.01.2019 21:00:00 0,2 -2,3 22 12 29 16 W 1013,2 45 0,0
18.01.2019 20:00:00 0,6 -2,3 22 12 29 16 W 1012,9 45 0,0
18.01.2019 19:00:00 0,4 -2,0 18 10 25 14 W 1012,7 45 0,0
18.01.2019 18:00:00 0,6 -2,5 18 10 25 14 W 1012,5 45 0,0
18.01.2019 17:00:00 0,4 -4,1 22 12 25 14 W 1012,2 50 0,0
18.01.2019 16:00:00 0,4 -4,6 22 12 29 16 W 1012,2 50 0,0
18.01.2019 15:00:00 0,3 -5,1 22 12 29 16 W 1011,5 45 0,0
18.01.2019 14:00:00 0,0 -5,8 22 12 32 18 W 1011,3 45 0,0
18.01.2019 13:00:00 -0,4 -6,6 22 12 32 18 W 1011,0 45 0,0
18.01.2019 12:00:00 -0,9 -6,3 18 10 25 14 WNW 1010,7 45 0,0
18.01.2019 11:00:00 -2,0 -6,6 11 6 22 12 NW 1010,1 45 0,0
18.01.2019 10:00:00 -3,1 -6,7 11 6 18 10 NW 1009,5 45 0,0
18.01.2019 09:00:00 -3,8 -6,9 11 6 22 12 NW 1008,5 50 0,0
18.01.2019 08:00:00 -3,8 -6,9 11 6 25 14 NW 1007,4 50 0,0
18.01.2019 07:00:00 -3,7 -6,6 7 4 22 12 NW 1006,7 50 0,0
18.01.2019 06:00:00 -3,5 -6,3 11 6 22 12 NW 1005,9 50 0,0
18.01.2019 05:00:00 -3,4 -6,2 11 6 22 12 NW 1005,3 50 0,0
18.01.2019 04:00:00 -3,1 -6,2 11 6 22 12 NW 1004,9 50 0,0
18.01.2019 03:00:00 -2,8 -6,1 14 8 25 14 NNW 1003,9 50 0,0
18.01.2019 02:00:00 -2,3 -5,8 11 6 25 14 NNW 1002,9 50 0,0
18.01.2019 01:00:00 -1,6 -5,4 18 10 32 18 N 1001,9 50 0,0
18.01.2019 00:00:00 -1,2 -4,9 22 12 32 18 N 1000,7 50 0,0
17.01.2019 23:00:00 -1,1 -4,3 14 8 32 18 N 999,4 50 0,0
17.01.2019 22:00:00 -1,3 -3,5 14 8 25 14 N 998,3 8 0,0
17.01.2019 21:00:00 -0,8 -3,2 14 8 32 18 N 997,2 30 0,0
17.01.2019 20:00:00 -0,8 -2,5 14 8 32 18 NNE 996,0 50 0,1
17.01.2019 19:00:00 -1,5 -2,3 18 10 29 16 ENE 994,1 1,0 0,6
17.01.2019 18:00:00 -0,4 -1,8 14 8 36 19 NNE 993,9 1,5 0,1
17.01.2019 17:00:00 0,4 -0,7 25 14 32 18 ENE 992,0 12 0,0
17.01.2019 16:00:00 3,0 0,9 7 4 14 8 NNW 991,7 50 0,0
17.01.2019 15:00:00 - - - - - - - - - -
17.01.2019 14:00:00 3,3 1,2 14 8 32 18 WNW 990,2 45 0,1
17.01.2019 13:00:00 3,7 2,1 22 12 36 19 W 989,8 30 0,0
17.01.2019 12:00:00 3,5 1,9 29 16 36 19 W 989,4 40 0,0
17.01.2019 11:00:00 3,6 2,1 29 16 36 19 WSW 989,0 45 0,0
17.01.2019 10:00:00 3,7 2,2 25 14 43 23 W 988,7 40 0,0
17.01.2019 09:00:00 3,7 2,2 32 18 43 23 WSW 988,0 35 0,0
17.01.2019 08:00:00 3,9 2,4 32 18 47 25 WSW 987,1 18 0,0
17.01.2019 07:00:00 4,1 2,5 40 21 47 25 WSW 986,7 40 0,0
17.01.2019 06:00:00 4,1 2,5 36 19 43 23 WSW 986,4 45 0,0
17.01.2019 05:00:00 4,0 2,7 36 19 54 29 WSW 986,7 35 0,0
17.01.2019 04:00:00 4,3 3,3 43 23 61 33 WSW 986,8 11 0,0
17.01.2019 03:00:00 4,4 3,4 47 25 65 35 WSW 987,3 12 0,0
17.01.2019 02:00:00 4,6 3,6 47 25 61 33 SW 988,0 9 0,0
17.01.2019 01:00:00 4,6 3,9 47 25 61 33 SW 988,7 9 0,0
17.01.2019 00:00:00 4,7 4,0 50 27 61 33 SW 989,3 4,9 0,0
16.01.2019 23:00:00 5,0 4,1 50 27 61 33 SW 989,9 15 0,0
16.01.2019 22:00:00 - - - - - - - - - -
16.01.2019 21:00:00 5,1 4,4 43 23 58 31 SW 991,1 14 0,0
16.01.2019 20:00:00 5,0 4,4 43 23 54 29 SW 991,7 19 0,0
16.01.2019 19:00:00 4,9 4,3 43 23 61 33 SW 992,3 8 0,0
16.01.2019 18:00:00 4,9 4,2 43 23 54 29 SW 993,3 10 0,0
16.01.2019 17:00:00 5,0 4,0 43 23 50 27 SW 994,0 11 0,0
16.01.2019 16:00:00 5,0 4,1 36 19 47 25 WSW 994,8 11 0,0
16.01.2019 15:00:00 5,0 4,3 36 19 47 25 SW 995,4 11 0,0
16.01.2019 14:00:00 5,2 4,0 32 18 40 21 WSW 996,2 15 0,0
16.01.2019 13:00:00 4,7 4,1 32 18 40 21 WSW 996,7 10 0,0
16.01.2019 12:00:00 3,6 3,2 22 12 32 18 SW 997,4 17 0,0
16.01.2019 11:00:00 3,4 3,0 22 12 25 14 SW 998,8 6 0,1
16.01.2019 10:00:00 3,2 2,8 18 10 22 12 SW 999,2 8 0,0
16.01.2019 09:00:00 0,8 0,2 4 2 7 4 ENE 999,8 6 0,0
16.01.2019 08:00:00 0,3 -0,3 4 2 7 4 E 999,9 16 0,0
16.01.2019 07:00:00 0,5 -0,1 4 2 7 4 E 999,8 20 0,0
16.01.2019 06:00:00 1,0 0,3 4 2 7 4 N 999,9 17 0,0
16.01.2019 05:00:00 0,5 -0,1 0 0 4 2 N 1000,2 30 0,0
16.01.2019 04:00:00 0,2 -0,5 4 2 7 4 NE 1000,0 40 0,0
16.01.2019 03:00:00 0,8 -0,1 4 2 7 4 ENE 999,8 45 0,0
16.01.2019 02:00:00 1,4 0,5 4 2 11 6 S 999,3 45 0,0
16.01.2019 01:00:00 1,1 -0,1 7 4 11 6 SSW 998,9 45 0,0
16.01.2019 00:00:00 1,0 -0,5 0 0 7 4 N 998,7 45 0,0
15.01.2019 23:00:00 1,1 -0,4 4 2 14 8 NNW 998,1 45 0,0
15.01.2019 22:00:00 1,2 -0,3 11 6 32 18 N 997,6 50 0,0
15.01.2019 21:00:00 1,2 0,2 18 10 43 23 NNW 996,5 50 0,0
15.01.2019 20:00:00 1,3 1,0 18 10 40 21 NW 995,2 40 0,0
15.01.2019 19:00:00 -0,3 -0,6 7 4 11 6 N 994,0 6 0,0
15.01.2019 18:00:00 -0,7 -0,8 7 4 14 8 ENE 993,2 3,3 0,2
15.01.2019 17:00:00 -0,5 -0,9 11 6 14 8 ESE 994,6 4,7 0,1

tt = Température de l'air
td = dewpoint
ff = Vitesse du vent
fx = gusts
dd = Direction du vent
ppp = reduced air pressure
vv = visibility
rr = Quantités de précipitations

stations d'obs. à proximité